N2TPQ-13 Weather Reports


Display with metric or nautical units.
time (UTC)temp
F
wind
direction
speed
MPH
gust
MPH
rain 1hr
in
rain 24hr
in
rain mn
in
humidity
%
barometer
mb
20260506033037 47 0 0.0 1.0 0.00 0.06 0.06 91 1011.3
20260506031554 48 0 0.0 5.0 0.00 0.06 0.06 90 1011.6
20260506030039 49 110 0.0 3.0 0.00 0.06 0.06 89 1012.0
20260506024538 49 0 0.0 2.0 0.00 0.06 0.06 88 1011.7
20260506023038 51 5 0.0 2.0 0.00 0.06 0.06 87 1011.9
20260506021536 52 0 0.0 0.0 0.00 0.06 0.06 87 1012.0
20260506020039 52 0 0.0 3.0 0.00 0.06 0.06 86 1011.9
20260506014537 53 0 0.0 3.0 0.00 0.06 0.06 85 1011.4
20260506013037 53 360 0.0 2.0 0.00 0.06 0.06 84 1011.1
20260506012035 54 360 1.0 5.0 0.00 0.06 0.06 83 1010.8
20260506010041 55 327 3.0 9.0 0.00 0.06 0.06 84 1010.5
20260506004538 56 0 0.0 3.0 0.00 0.06 0.06 84 1010.7
20260506003038 57 332 2.0 9.0 0.00 0.06 0.06 83 1010.8
20260506001537 59 24 3.0 8.0 0.00 0.06 0.06 87 1010.3
20260506000035 60 5 0.0 4.0 0.00 0.06 0.06 87 1010.1
20260505234545 60 360 2.0 7.0 0.00 0.06 0.06 86 1009.7
20260505233041 62 360 2.0 7.0 0.00 0.06 0.06 83 1009.7
20260505231545 63 119 4.0 8.0 0.00 0.06 0.06 78 1009.3
20260505230036 63 182 2.0 8.0 0.00 0.06 0.06 78 1008.8
20260505224539 64 0 0.0 10.0 0.00 0.06 0.06 78 1008.9
20260505223048 66 207 7.0 17.0 0.00 0.06 0.06 71 1008.8
20260505221538 68 0 0.0 3.0 0.00 0.06 0.06 71 1008.3
20260505220041 67 209 1.0 4.0 0.00 0.06 0.06 71 1008.1
20260505214549 67 207 3.0 8.0 0.00 0.06 0.06 73 1008.0
20260505213042 67 216 2.0 6.0 0.00 0.06 0.06 76 1007.8
20260505211537 67 231 2.0 6.0 0.00 0.06 0.06 78 1007.6
20260505210038 65 209 2.0 5.0 0.00 0.06 0.06 79 1007.8
20260505204539 64 198 3.0 9.0 0.01 0.06 0.06 84 1007.9
20260505203037 64 196 4.0 8.0 0.02 0.06 0.06 83 1007.9
20260505201545 61 211 2.0 5.0 0.04 0.06 0.06 91 1008.2
20260505200043 60 216 1.0 7.0 0.04 0.06 0.06 93 1008.7
20260505194540 61 185 1.0 3.0 0.03 0.05 0.05 90 1009.2
20260505193037 62 187 3.0 8.0 0.02 0.04 0.04 85 1009.1
20260505191540 65 236 0.0 3.0 0.00 0.02 0.02 76 1009.0
20260505190040 66 0 1.0 5.0 0.00 0.02 0.02 74 1008.5
20260505184539 68 0 2.0 12.0 0.00 0.02 0.02 66 1007.8
20260505183040 72 0 3.0 8.0 0.00 0.02 0.02 52 1007.3
20260505181601 73 155 3.0 12.0 0.00 0.02 0.02 49 1006.9
20260505180040 73 194 3.0 14.0 0.00 0.02 0.02 49 1007.0
20260505174542 73 180 5.0 11.0 0.00 0.02 0.02 49 1007.1
20260505173042 72 171 2.0 12.0 0.00 0.02 0.02 51 1007.6
20260505171539 71 187 1.0 15.0 0.00 0.02 0.02 52 1007.7
20260505170036 72 0 4.0 12.0 0.00 0.02 0.02 50 1007.8
20260505164554 72 0 8.0 20.0 0.00 0.02 0.02 50 1007.7
20260505163050 73 153 5.0 13.0 0.00 0.02 0.02 49 1007.3
20260505161538 73 214 4.0 11.0 0.00 0.02 0.02 52 1007.2
20260505153037 73 150 6.0 19.0 0.00 0.02 0.02 50 1007.9
20260505151540 73 284 4.0 18.0 0.00 0.02 0.02 53 1007.7
20260505130106 63 207 4.0 13.0 0.00 0.02 0.02 71 1007.8
20260505124552 62 194 3.0 10.0 0.00 0.02 0.02 72 1008.0
20260505123054 61 190 4.0 12.0 0.00 0.02 0.02 73 1008.3
20260505121538 60 219 4.0 9.0 0.00 0.02 0.02 76 1008.2
20260505120039 59 203 2.0 6.0 0.00 0.02 0.02 80 1008.5
20260505114538 58 213 2.0 7.0 0.00 0.02 0.02 81 1008.4
20260505113039 58 188 1.0 9.0 0.00 0.02 0.02 83 1008.1
20260505111541 56 297 2.0 8.0 0.00 0.02 0.02 87 1008.0
20260505101536 56 183 3.0 10.0 0.02 0.02 0.02 86 1007.7
20260505100040 59 201 3.0 9.0 0.00 0.00 0.00 69 1008.3
20260505094541 58 219 2.0 5.0 0.00 0.00 0.00 70 1008.1
20260505093037 58 209 2.0 8.0 0.00 0.00 0.00 70 1007.7
20260505091537 58 187 2.0 8.0 0.00 0.00 0.00 70 1007.6
20260505090039 58 208 1.0 6.0 0.00 0.00 0.00 69 1007.7
20260505084536 59 0 1.0 5.0 0.00 0.00 0.00 68 1007.4
20260505083039 59 0 1.0 5.0 0.00 0.00 0.00 68 1007.4
20260505081545 60 223 1.0 8.0 0.00 0.00 0.00 66 1007.4
20260505080042 59 202 2.0 8.0 0.00 0.00 0.00 66 1007.5
20260505074537 59 321 0.0 4.0 0.00 0.00 0.00 68 1007.5
20260505073045 59 0 0.0 5.0 0.00 0.00 0.00 68 1007.5
20260505071549 59 213 1.0 7.0 0.00 0.00 0.00 67 1007.4
20260505070042 59 0 0.0 6.0 0.00 0.00 0.00 67 1007.5
20260505064538 59 0 0.0 6.0 0.00 0.00 0.00 67 1007.7
20260505063037 59 0 0.0 6.0 0.00 0.00 0.00 67 1007.6
20260505061535 59 202 0.0 4.0 0.00 0.00 0.00 65 1007.6
20260505060045 60 0 0.0 5.0 0.00 0.00 0.00 64 1007.7
20260505054552 60 0 0.0 5.0 0.00 0.00 0.00 64 1007.7
20260505053054 61 0 0.0 6.0 0.00 0.00 0.00 61 1007.9
20260505051541 61 229 0.0 4.0 0.00 0.00 0.00 61 1007.8
20260505041537 60 186 1.0 5.0 0.00 0.00 0.00 61 1008.1
20260505040044 60 284 1.0 8.0 0.00 0.00 0.00 60 1007.9
20260505034539 60 0 1.0 6.0 0.00 0.00 0.00 60 1007.9